Flag for Germany Weather past 2 weeks in Helmstedt, Lower Saxony, Germany

45 °F

Scattered clouds.

Feels Like: 41 °F
Forecast: 33 / 41 °F
Wind: 7 mph from Northwest

Location: Braunschweig

Current Time: Nov 26, 2015 at 4:08:46 PM

Latest Report: Nov 26, 2015 at 3:20 PM

Visibility: N/A

Pressure: 30.01 "Hg

Humidity: 81%

Dew point: 39 °F

Location of HelmstedtLocation

Historic Weather in Helmstedt — Graph


Helmstedt temperature yesterday

Maximum temperature yesterday: 39 °F (at 11:50 AM)
Minimum temperature yesterday: 36 °F (at 6:50 AM)
Average temperature yesterday: 39 °F

Past Weeks' High & Low Weather Summary

High59 °F (Nov 12, 1:20 PM)100% (Nov 13, 8:50 PM)30.27 "Hg (Nov 13, 8:50 PM)
Low32 °F (Nov 22, 4:50 PM)58% (Nov 13, 5:50 PM)29.36 "Hg (Nov 21, 7:50 AM)
Average47 °F85%29.85 "Hg
* Reported Nov 11 2:20 PM — Nov 26 2:50 PM, Helmstedt, Weather by CustomWeather, © 2015

Note: Actual official high and low records may vary slightly from our data, if they occured in-between our weather recording intervals... More about our weather records


Helmstedt weather history for previous 24 hours

Time TempWeatherWind HumidityBarometerVisibility
2:50 PM
Thu, Nov 26
45 °FScattered clouds.8 mph87%30.01 "HgN/A
2:20 PM45 °FScattered clouds.8 mph81%30.01 "HgN/A
1:50 PM45 °FPassing clouds.8 mph81%29.98 "HgN/A
1:20 PM45 °FPassing clouds.7 mph87%29.98 "HgN/A
12:50 PM45 °FPassing clouds.9 mph87%29.98 "HgN/A
12:20 PM43 °FPassing clouds.8 mph93%29.95 "HgN/A
11:50 AM43 °FPassing clouds.7 mph93%29.95 "HgN/A
11:20 AM41 °FPassing clouds.9 mph100%29.95 "HgN/A
10:50 AM41 °FScattered clouds.6 mph100%29.95 "Hg5 mi
10:20 AM39 °FBroken clouds.7 mph100%29.92 "Hg5 mi
9:50 AM39 °FPartly sunny.6 mph100%29.92 "Hg4 mi
9:20 AM39 °FPartly sunny.6 mph100%29.92 "Hg4 mi
8:50 AM39 °FPartly sunny.7 mph100%29.89 "Hg4 mi
8:20 AM39 °FMore clouds than sun.6 mph100%29.89 "Hg4 mi
7:50 AM39 °FMostly cloudy.6 mph100%29.86 "Hg5 mi
7:20 AM39 °FLow clouds.6 mph100%29.83 "Hg5 mi
6:50 AM39 °FLow clouds.7 mph100%29.83 "Hg5 mi
5:50 AM39 °FLow clouds.7 mph100%29.80 "Hg4 mi
1:20 AM39 °FPassing clouds.5 mph100%29.71 "Hg4 mi
12:50 AM39 °FPassing clouds.5 mph100%29.71 "Hg4 mi
9:50 PM
Wed, Nov 25
39 °FMostly cloudy.8 mph100%29.68 "HgN/A
9:20 PM39 °FOvercast.7 mph100%29.68 "HgN/A
8:50 PM39 °FOvercast.8 mph100%29.68 "HgN/A
8:20 PM39 °FOvercast.10 mph100%29.65 "HgN/A
7:50 PM39 °FMostly cloudy.12 mph100%29.65 "HgN/A
7:20 PM39 °FOvercast.10 mph100%29.65 "HgN/A
6:50 PM39 °FMostly cloudy.12 mph100%29.65 "HgN/A
6:20 PM39 °FMostly cloudy.8 mph100%29.65 "HgN/A
5:50 PM39 °FPassing clouds.7 mph100%29.65 "HgN/A
5:20 PM39 °FMostly cloudy.9 mph100%29.62 "HgN/A
4:20 PM39 °FOvercast.10 mph93%29.62 "HgN/A
Weather by CustomWeather, © 2015

See weather overviewHow to use our weather pages